Location: Ay?beleni
(36.6500°N, 30.3000°E)
Time: 04:15:26
(UTC+00:00)

YAOGAN 1 - Pass Details

Date: 16 October 2021
Orbit: 618 x 620 km, 97.9° (Epoch: 08 December)

Event Time Altitude Azimuth Distance (km) Brightness Sun altitude
Rises 16:23:15 0° 150° (SSE) 2,880 5.7 -13.2°
Reaches altitude 10° 16:25:31 10° 144° (SE) 1,979 4.8 -13.7°
Maximum altitude 16:29:34 42° 73° (ENE) 883 2.9 -14.5°
Drops below altitude 10° 16:33:40 10° 2° (N) 1,993 5.1 -15.3°
Sets 16:35:56 0° 356° (N) 2,903 6.1 -15.8°
